CW7693 Weather Reports


Display with metric or nautical units.
time (UTC)temp
F
wind
direction
speed
MPH
gust
MPH
rain 1hr
in
rain 24hr
in
rain mn
in
humidity
%
barometer
mb
20260904173303 82 236 6.0 12.0 0.00 0.00 0.00 35 1017.3
20260904172804 82 257 3.0 8.0 0.00 0.00 0.00 37 1017.2
20260904171803 83 251 2.0 6.0 0.00 0.00 0.00 35 1017.3
20260904171303 83 271 2.0 13.0 0.00 0.00 0.00 35 1017.3
20260904170804 84 223 5.0 13.0 0.00 0.00 0.00 34 1017.1
20260904170304 84 174 5.0 9.0 0.00 0.00 0.00 33 1017.1
20260904165804 84 249 3.0 8.0 0.00 0.00 0.00 34 1017.0
20260904165305 84 168 3.0 12.0 0.00 0.00 0.00 34 1017.0
20260904164303 84 223 3.0 13.0 0.00 0.00 0.00 34 1017.1
20260904163804 84 235 6.0 13.0 0.00 0.00 0.00 33 1017.1
20260904163303 85 230 6.0 13.0 0.00 0.00 0.00 34 1017.1
20260904162804 85 277 5.0 13.0 0.00 0.00 0.00 34 1017.1
20260904162306 85 213 6.0 12.0 0.00 0.00 0.00 33 1017.1
20260904161803 85 268 7.0 12.0 0.00 0.00 0.00 32 1017.1
20260904161303 86 249 3.0 12.0 0.00 0.00 0.00 32 1017.1
20260904160303 86 216 5.0 12.0 0.00 0.00 0.00 32 1017.0
20260904155803 86 221 6.0 18.0 0.00 0.00 0.00 32 1017.0
20260904155306 86 264 6.0 18.0 0.00 0.00 0.00 32 1017.2
20260904154304 86 257 7.0 15.0 0.00 0.00 0.00 32 1017.0
20260904153804 86 266 6.0 15.0 0.00 0.00 0.00 32 1017.1
20260904153303 86 298 7.0 15.0 0.00 0.00 0.00 32 1017.0
20260904152803 86 249 5.0 15.0 0.00 0.00 0.00 31 1017.0
20260904152306 87 255 7.0 14.0 0.00 0.00 0.00 31 1017.1
20260904151804 86 273 6.0 15.0 0.00 0.00 0.00 31 1017.1
20260904151304 87 263 9.0 15.0 0.00 0.00 0.00 30 1017.2
20260904150303 87 296 7.0 14.0 0.00 0.00 0.00 30 1017.1
20260904145804 87 291 7.0 14.0 0.00 0.00 0.00 30 1017.3
20260904143803 87 214 6.0 17.0 0.00 0.00 0.00 30 1017.4
20260904142803 88 247 8.0 14.0 0.00 0.00 0.00 30 1017.4
20260904142306 87 250 4.0 14.0 0.00 0.00 0.00 31 1017.5
20260904141303 87 279 7.0 14.0 0.00 0.00 0.00 31 1017.5
20260904140803 88 222 5.0 12.0 0.00 0.00 0.00 31 1017.5
20260904140304 88 251 5.0 12.0 0.00 0.00 0.00 31 1017.7
20260904135804 88 274 7.0 12.0 0.00 0.00 0.00 30 1017.6
20260904135306 88 213 5.0 10.0 0.00 0.00 0.00 30 1017.6
20260904134804 88 222 5.0 10.0 0.00 0.00 0.00 30 1017.5
20260904133803 88 278 4.0 12.0 0.00 0.00 0.00 30 1017.6
20260904132804 87 276 9.0 14.0 0.00 0.00 0.00 30 1017.7
20260904132306 88 275 5.0 14.0 0.00 0.00 0.00 30 1017.6
20260904131803 88 316 8.0 12.0 0.00 0.00 0.00 29 1017.7
20260904130804 88 244 3.0 10.0 0.00 0.00 0.00 29 1017.7
20260904125804 88 251 3.0 8.0 0.00 0.00 0.00 29 1017.9
20260904125305 88 245 3.0 8.0 0.00 0.00 0.00 29 1018.0
20260904124803 89 291 4.0 9.0 0.00 0.00 0.00 29 1018.1
20260904123804 88 188 3.0 12.0 0.00 0.00 0.00 29 1018.2
20260904123304 88 256 5.0 13.0 0.00 0.00 0.00 29 1018.3
20260904122804 88 176 6.0 13.0 0.00 0.00 0.00 29 1018.4
20260904122306 88 226 4.0 12.0 0.00 0.00 0.00 30 1018.4
20260904121803 87 213 7.0 12.0 0.00 0.00 0.00 30 1018.4
20260904121303 87 269 6.0 10.0 0.00 0.00 0.00 31 1018.5
20260904120803 87 269 6.0 12.0 0.00 0.00 0.00 31 1018.6
20260904120304 86 282 3.0 12.0 0.00 0.00 0.00 34 1018.5
20260904115803 86 295 5.0 12.0 0.00 0.00 0.00 34 1018.6
20260904115306 86 300 4.0 9.0 0.00 0.00 0.00 34 1018.6
20260904113804 85 297 5.0 8.0 0.00 0.00 0.00 36 1018.8
20260904112803 85 310 3.0 6.0 0.00 0.00 0.00 36 1018.9
20260904112306 85 20 2.0 3.0 0.00 0.00 0.00 36 1019.0
20260904111804 85 309 2.0 3.0 0.00 0.00 0.00 36 1019.1
20260904111303 84 140 1.0 3.0 0.00 0.00 0.00 37 1019.2
20260904110304 83 129 2.0 6.0 0.00 0.00 0.00 38 1019.4
20260904105306 83 142 2.0 3.0 0.00 0.00 0.00 38 1019.6
20260904104803 82 163 1.0 3.0 0.00 0.00 0.00 38 1019.6
20260904104304 82 171 1.0 3.0 0.00 0.00 0.00 39 1019.8
20260904103804 81 240 2.0 5.0 0.00 0.00 0.00 40 1020.0
20260904103304 80 295 2.0 8.0 0.00 0.00 0.00 40 1019.9
20260904102803 81 28 3.0 8.0 0.00 0.00 0.00 41 1020.0
20260904101804 80 254 2.0 3.0 0.00 0.00 0.00 43 1020.3
20260904100804 80 5 2.0 3.0 0.00 0.00 0.00 43 1020.5
20260904095804 80 257 1.0 3.0 0.00 0.00 0.00 45 1020.6
20260904095306 78 142 1.0 3.0 0.00 0.00 0.00 46 1020.8
20260904094803 78 325 2.0 3.0 0.00 0.00 0.00 48 1020.8
20260904094303 77 269 1.0 5.0 0.00 0.00 0.00 48 1020.9
20260904093803 76 285 2.0 5.0 0.00 0.00 0.00 48 1021.1
20260904093303 76 344 1.0 5.0 0.00 0.00 0.00 49 1021.1
20260904092803 76 339 2.0 5.0 0.00 0.00 0.00 48 1021.1
20260904092306 76 322 1.0 3.0 0.00 0.00 0.00 48 1021.2
20260904091804 76 285 2.0 3.0 0.00 0.00 0.00 46 1021.3
20260904091304 76 321 2.0 3.0 0.00 0.00 0.00 46 1021.4
20260904090804 76 350 1.0 2.0 0.00 0.00 0.00 47 1021.3
20260904090304 76 357 1.0 3.0 0.00 0.00 0.00 48 1021.3
20260904085804 75 113 1.0 3.0 0.00 0.00 0.00 49 1021.3
20260904084804 74 5 0.0 3.0 0.00 0.00 0.00 51 1021.4
20260904083804 73 222 1.0 3.0 0.00 0.00 0.00 53 1021.4
20260904083304 72 142 0.0 3.0 0.00 0.00 0.00 55 1021.4
20260904082803 72 143 0.0 3.0 0.00 0.00 0.00 56 1021.4
20260904080803 69 161 1.0 3.0 0.00 0.00 0.00 60 1021.5
20260904080303 69 161 1.0 3.0 0.00 0.00 0.00 61 1021.5
20260904075306 67 160 0.0 3.0 0.00 0.00 0.00 64 1021.8
20260904074803 66 141 2.0 3.0 0.00 0.00 0.00 65 1021.8
20260904072804 62 152 2.0 3.0 0.00 0.00 0.00 69 1021.8
20260904072306 62 2 3.0 3.0 0.00 0.00 0.00 71 1021.8
20260904071803 61 155 2.0 5.0 0.00 0.00 0.00 73 1021.8
20260904071303 61 155 3.0 5.0 0.00 0.00 0.00 75 1021.9
20260904070803 60 154 3.0 3.0 0.00 0.00 0.00 76 1021.9
20260904070304 60 143 3.0 3.0 0.00 0.00 0.00 76 1022.1
20260904065804 59 154 2.0 3.0 0.00 0.00 0.00 76 1022.1
20260904065306 59 154 2.0 3.0 0.00 0.00 0.00 77 1022.1
20260904063804 58 0 2.0 3.0 0.00 0.00 0.00 78 1022.1
20260904062804 57 0 2.0 5.0 0.00 0.00 0.00 79 1022.0
20260904061804 57 0 3.0 5.0 0.00 0.00 0.00 79 1022.1
20260904055804 56 0 2.0 3.0 0.00 0.00 0.00 81 1022.1
20260904053805 55 0 3.0 6.0 0.00 0.00 0.00 83 1022.4
20260904053304 55 0 3.0 6.0 0.00 0.00 0.00 82 1022.5
20260904052306 55 0 2.0 3.0 0.00 0.00 0.00 82 1022.4
20260904051804 55 0 1.0 3.0 0.00 0.00 0.00 82 1022.4
20260904051304 55 0 2.0 3.0 0.00 0.00 0.00 83 1022.4
20260904050804 55 1 2.0 3.0 0.00 0.00 0.00 83 1022.4
20260904050304 55 0 1.0 5.0 0.00 0.00 0.00 83 1022.5
20260904045804 55 0 3.0 5.0 0.00 0.00 0.00 83 1022.5
20260904044803 55 0 0.0 0.0 0.00 0.00 0.00 83 1022.5
20260904044303 55 0 0.0 0.0 0.00 0.00 0.00 83 1022.5
20260904043804 55 0 0.0 0.0 0.00 0.00 0.00 84 1022.5
20260904043303 55 0 0.0 0.0 0.00 0.00 0.00 84 1022.6
20260904042803 55 0 0.0 0.0 0.00 0.00 0.00 84 1022.7
20260904042306 55 0 0.0 0.0 0.00 0.00 0.00 84 1022.7
20260904041804 55 0 0.0 0.0 0.00 0.00 0.00 84 1022.5
20260904041304 55 0 0.0 0.0 0.00 0.00 0.00 84 1022.6
20260904040803 55 0 0.0 0.0 0.00 0.00 0.00 83 1022.7
20260904040304 55 1 0.0 1.0 0.00 0.00 0.00 83 1022.7
20260904035306 55 0 1.0 3.0 0.00 0.00 0.00 83 1022.7
20260904034803 55 0 0.0 2.0 0.00 0.00 0.00 83 1022.8
20260904034303 55 0 0.0 0.0 0.00 0.00 0.00 82 1022.8
20260904033803 55 0 0.0 0.0 0.00 0.00 0.00 82 1022.8
20260904032803 56 0 0.0 0.0 0.00 0.00 0.00 82 1022.9
20260904031803 56 2 0.0 0.0 0.00 0.00 0.00 81 1023.0
20260904030804 57 0 0.0 0.0 0.00 0.00 0.00 80 1023.0
20260904030304 57 0 0.0 0.0 0.00 0.00 0.00 79 1022.9
20260904025803 57 0 0.0 0.0 0.00 0.00 0.00 79 1022.9
20260904025306 57 0 0.0 0.0 0.00 0.00 0.00 78 1022.9
20260904024304 57 0 0.0 0.0 0.00 0.00 0.00 78 1023.1
20260904023804 57 0 0.0 0.0 0.00 0.00 0.00 78 1023.1
20260904023304 57 0 0.0 0.0 0.00 0.00 0.00 78 1023.2
20260904022804 58 0 0.0 1.0 0.00 0.00 0.00 78 1023.2
20260904022305 58 0 0.0 1.0 0.00 0.00 0.00 77 1023.2
20260904021803 58 0 0.0 2.0 0.00 0.00 0.00 76 1023.2
20260904015803 58 0 0.0 0.0 0.00 0.00 0.00 77 1023.5
20260904014804 58 0 0.0 0.0 0.00 0.00 0.00 77 1023.5
20260904013303 59 0 1.0 2.0 0.00 0.00 0.00 75 1023.6
20260904012803 59 0 0.0 0.0 0.00 0.00 0.00 75 1023.7
20260904012306 59 0 0.0 2.0 0.00 0.00 0.00 75 1023.6
20260904011803 59 0 0.0 3.0 0.00 0.00 0.00 75 1023.6
20260904011303 59 0 1.0 3.0 0.00 0.00 0.00 75 1023.7
20260904010804 59 0 0.0 0.0 0.00 0.00 0.00 75 1023.7
20260904010304 59 0 0.0 2.0 0.00 0.00 0.00 75 1023.7
20260904005803 59 0 0.0 3.0 0.00 0.00 0.00 75 1023.6
20260904005306 59 0 2.0 3.0 0.00 0.00 0.00 75 1023.5
20260904003303 59 0 0.0 2.0 0.00 0.00 0.00 75 1023.7
20260904002306 59 0 1.0 2.0 0.00 0.00 0.00 74 1023.8
20260904001803 60 0 0.0 2.0 0.00 0.00 0.00 74 1023.7
20260903235803 60 0 0.0 3.0 0.00 0.00 0.00 73 1023.9
20260903235305 60 0 0.0 3.0 0.00 0.00 0.00 73 1023.9
20260903234803 60 0 2.0 3.0 0.00 0.00 0.00 73 1024.0
20260903234303 60 0 1.0 3.0 0.00 0.00 0.00 73 1024.0
20260903233303 60 0 0.0 2.0 0.00 0.00 0.00 73 1024.1
20260903232306 61 0 0.0 5.0 0.00 0.00 0.00 74 1024.1
20260903231803 61 0 3.0 5.0 0.00 0.00 0.00 74 1024.1
20260903231303 61 0 2.0 3.0 0.00 0.00 0.00 74 1024.2
20260903230803 61 0 0.0 2.0 0.00 0.00 0.00 74 1024.1
20260903230303 61 0 0.0 0.0 0.00 0.00 0.00 74 1024.2
20260903225803 61 0 0.0 2.0 0.00 0.00 0.00 75 1024.3
20260903225306 61 0 0.0 3.0 0.00 0.00 0.00 74 1024.2
20260903224303 61 0 0.0 2.0 0.00 0.00 0.00 73 1024.3
20260903223804 61 0 0.0 2.0 0.00 0.00 0.00 73 1024.4
20260903221803 62 0 0.0 2.0 0.00 0.00 0.00 73 1024.3
20260903221303 62 0 0.0 3.0 0.00 0.00 0.00 73 1024.4
20260903220803 62 0 0.0 3.0 0.00 0.00 0.00 73 1024.4
20260903220309 62 0 0.0 1.0 0.00 0.00 0.00 73 1024.3
20260903214804 63 0 1.0 3.0 0.00 0.00 0.00 72 1024.2
20260903214304 63 0 1.0 3.0 0.00 0.00 0.00 71 1024.1
20260903212803 63 0 1.0 2.0 0.00 0.00 0.00 70 1024.0
20260903211803 64 0 1.0 2.0 0.00 0.00 0.00 70 1024.1
20260903210804 64 0 0.0 2.0 0.00 0.00 0.00 69 1024.2
20260903210303 64 0 0.0 3.0 0.00 0.00 0.00 69 1024.1
20260903205306 65 0 1.0 3.0 0.00 0.00 0.00 68 1024.1
20260903203803 65 0 2.0 7.0 0.00 0.00 0.00 67 1024.0
20260903200804 67 0 0.0 2.0 0.00 0.00 0.00 66 1023.5
20260903200304 67 0 0.0 3.0 0.00 0.00 0.00 65 1023.5
20260903195804 67 0 0.0 3.0 0.00 0.00 0.00 65 1023.5
20260903194804 67 0 1.0 2.0 0.00 0.00 0.00 64 1023.4
20260903193304 68 0 2.0 3.0 0.00 0.00 0.00 63 1023.2
20260903192803 68 0 2.0 5.0 0.00 0.00 0.00 62 1023.2
20260903192306 68 0 3.0 5.0 0.00 0.00 0.00 61 1023.4
20260903191804 69 0 1.0 3.0 0.00 0.00 0.00 60 1023.4
20260903190303 69 0 0.0 3.0 0.00 0.00 0.00 57 1023.2
20260903185803 70 0 1.0 3.0 0.00 0.00 0.00 57 1023.1
20260903184803 70 0 1.0 3.0 0.00 0.00 0.00 56 1023.2
20260903184303 70 0 2.0 3.0 0.00 0.00 0.00 56 1023.1
20260903183803 70 0 0.0 3.0 0.00 0.00 0.00 55 1023.1
20260903183303 70 0 3.0 3.0 0.00 0.00 0.00 54 1023.0
20260903182803 70 0 1.0 3.0 0.00 0.00 0.00 54 1022.9
20260903182306 71 0 2.0 3.0 0.00 0.00 0.00 55 1022.9
20260903180804 72 0 0.0 2.0 0.00 0.00 0.00 50 1022.7
20260903180304 72 0 1.0 2.0 0.00 0.00 0.00 49 1022.7
20260903175306 73 0 1.0 8.0 0.00 0.00 0.00 47 1022.6
20260903174804 73 3 5.0 8.0 0.00 0.00 0.00 48 1022.7
20260903174304 73 0 0.0 0.0 0.00 0.00 0.00 47 1022.7